Preview of NWS' New Version of Forecast
This preview is not operational and should not be used for support decisions.

Regional Weather Roundup (RWR)

Issued by National Weather Service (NWS)

                            
000
ASUS43 KMKX 212320
RWRWI 

WISCONSIN REGIONAL WEATHER ROUNDUP
NATIONAL WEATHER SERVICE MILWAUKEE/SULLIVAN WI
600 PM CDT SUN APR 21 2019

NOTE: "FAIR" INDICATES FEW OR NO CLOUDS BELOW 12,000 FEET WITH NO
SIGNIFICANT WEATHER AND/OR OBSTRUCTIONS TO VISIBILITY.

WIZ001-002-006>008-014>016-023>028-220000-
NORTHWEST WISCONSIN
  
CITY           SKY/WX    TMP DP  RH WIND       PRES   REMARKS
SUPERIOR ARPT  CLOUDY    37  37  99 NE12G18   30.08R WCI  29          
ASHLAND        CLOUDY    37  36  96 NE14      30.06R WCI  28          
HAYWARD        CLOUDY    47  40  76 NE18G26   29.97R                  
SIREN          CLOUDY    52  40  64 NE14G23   29.93R                  
CUMBERLAND     FAIR      59  41  51 NE14G20   29.88R                  
RICE LAKE      FAIR      62  43  49 N17G24    29.88R                  
CHETEK         FAIR      62  44  51 NE7       29.87S                  
LADYSMITH      FAIR      62  43  49 NE16      29.91R                  
EAU CLAIRE     FAIR      78  47  33 E8        29.79S                  
MENOMONIE      FAIR      69  37  30 N14G23    29.80R                  
NEW RICHMOND   FAIR      66  41  39 NE15G22   29.83S                  
OSCEOLA        FAIR      65  47  51 NE18      29.87R                  
$$
 
WIZ003>005-009-010-017-018-220000-
NORTH CENTRAL WISCONSIN
  
CITY           SKY/WX    TMP DP  RH WIND       PRES   REMARKS
MANITOWISH WTR PTSUNNY   45  42  89 N8        29.99R                  
ARBOR VITAE    FAIR      55  38  54 NE8       29.96R                  
WOODRUFF       FAIR      55  38  54 NE8       29.96R                  
RHINELANDER    PTSUNNY   58  34  40 E12G20    29.94R                  
EAGLE RIVER    FAIR      55  33  44 NE13      29.97R                  
LAND O LAKES   FAIR      47  37  70 NE9G17    30.02R                  
PHILLIPS       PTSUNNY   55  38  54 NE12      29.93R                  
TOMAHAWK       FAIR      59  37  43 NE8G20    29.92S                  
MEDFORD        FAIR      67  43  41 NE7       29.86R                  
MERRILL        FAIR      72  46  38 E12G17    29.87S                  
$$
 
WIZ029-030-035-036-043>047-220000-
CENTRAL WISCONSIN
  
CITY           SKY/WX    TMP DP  RH WIND       PRES   REMARKS
WAUSAU         NOT AVBL                                               
MOSINEE        MOSUNNY   75  45  33 S12G21    29.87R                  
MARSHFIELD     FAIR      76  47  35 SW16      29.84R                  
STEVENS POINT  FAIR      76  44  30 S8G20     29.87R                  
WAUPACA        FAIR      80  38  22 S9G20     29.88R                  
WAUTOMA        FAIR      79  44  28 S9        29.87R                  
WISC RAPIDS    FAIR      79  43  27 S10       29.85R                  
CAMP DOUGLAS   FAIR      77  47  33 SE7       29.83F                  
$$
 
WIZ011>013-019>022-031-037>040-048>050-220000-
NORTHEAST WISCONSIN
  
CITY           SKY/WX    TMP DP  RH WIND       PRES   REMARKS
ANTIGO         FAIR      66  43  44 E13G18    29.92R                  
SHAWANO        FAIR      65  43  44 E12       29.92R                  
OCONTO         FAIR      56  35  46 E7        29.95R                  
STURGEON BAY   FAIR      56  35  45 S8G16     29.97R                  
GREEN BAY      FAIR      60  42  51 NE12      29.92R                  
MANITOWOC      FAIR      54  34  46 S15       29.95R                  
APPLETON       MOSUNNY   75  34  22 S12G20    29.88R                  
CLINTONVILLE   FAIR      69  42  38 E9        29.90R                  
OSHKOSH        FAIR      77  43  29 S16G25    29.88S                  
$$
 
WIZ032>034-041-042-053>061-220000-
SOUTHWEST WISCONSIN
  
CITY           SKY/WX    TMP DP  RH WIND       PRES   REMARKS
LA CROSSE      FAIR      83  45  26 S15       29.78S HX  81           
SPARTA         FAIR      80  45  28 S12       29.83R                  
VIROQUA        FAIR      78  47  34 S10       29.85R                  
BOSCOBEL       FAIR      84  43  23 S13G26    29.83R HX  81           
PRAIRIE DU CHI FAIR      82  39  21 S8        29.81S HX  80           
PLATTEVILLE    FAIR      80  46  30 S16G25    29.87S                  
$$

WIZ056-057-062-063-064-067-068-220000-
SOUTH CENTRAL WISCONSIN
  
CITY           SKY/WX    TMP DP  RH WIND       PRES   REMARKS
REEDSBURG      FAIR      78  47  32 S8G16     29.86R                  
BARABOO/DELLS  FAIR      79  40  24 SW13      29.87R                  
LONE ROCK      FAIR      81  45  28 S14G24    29.85R HX  80           
MINERAL POINT  FAIR      81  43  26 S14G23    29.88R                  
MADISON        PTSUNNY   78  41  26 S18       29.89R                  
MIDDLETON      FAIR      81  38  21 S18G25    29.89R                  
WATERTOWN      FAIR      75  41  29 S9        29.91S                  
MONROE         FAIR      77  39  25 MISG      29.90S                  
JANESVILLE     PTSUNNY   79  37  22 S18       29.92R                  
$$
 
WIZ051-052-058>065-066-070>072-220000-
SOUTHEAST WISCONSIN
  
CITY           SKY/WX    TMP DP  RH WIND       PRES   REMARKS
MILWAUKEE      PTSUNNY   68  34  28 S14G23    29.95R                  
WAUKESHA       SUNNY     73  39  29 SE13G20   29.94R                  
MILWAUKEE/TIMM SUNNY     70  28  21 SE14      29.95R                  
RACINE         FAIR      62  30  29 S16G24    29.96F                  
KENOSHA        FAIR      69  35  28 SE17      29.95F                  
FOND DU LAC    FAIR      75  43  31 S14       29.89S                  
SHEBOYGAN      FAIR      61  36  39 S13       29.94S                  
WEST BEND      FAIR      72  36  26 SE13G18   29.93R                  
JUNEAU         FAIR      73  42  33 S13       29.92S                  
$$

LSZ147-162-220000-
LAKE SUPERIOR
  
STATION/POSITION TIME  TEMP    WIND        PRES    WAVE
                       AIR SEA DIR/SP/G            HT/PER
                 (UTC) (F)     (DEG/KT/KT) (MB)    (FT/S)
$$
 
LMZ867-665-643>646-220000-
LAKE MICHIGAN
  
STATION/POSITION TIME  TEMP    WIND        PRES    WAVE
                       AIR SEA DIR/SP/G            HT/PER
                 (UTC) (F)     (DEG/KT/KT) (MB)    (FT/S)
NORTHPORT PIER   2240   44      CALM  /  1 1015.9F
KEWAUNEE LAKESHO 2254   44     180/ 10/ 13 1013.8R
SHEBOYGAN LAKESH 2300   48     180/ 17/ 18 1014.2R
MILWAUKEE LAKESH 2300   50                   N/A
KENOSHA   LAKESH 2300   53     180/ 16/ 19 1014.2
$$

TC  - TEMPERATURE IN CELSIUS
VSB - VISIBILITY IN STATUTE MILES
WCI - WIND CHILL INDEX
HX  - HEAT INDEX